TIME,DELAY(SENSOR),PRES,OXYGEN,RAWTEMP,T(OPTODE),TCPHASE,FLUOR,BETA(BETA700),BETA(BETA412),BETA(BETA440),CDOM,C(CSC),ED(ED412.20),ED(ED444.00),ED(ED489.60),ED(ED554.30),LU(LU412.10),LU(LU443.90),LU(LU489.70),LU(LU554.70),COMP,TILTX,TILTY,CHECK
1364444110,5807,866.5200195312500000,34.7604293823242200,563.0407714843750000,4.3916168212890625,56.3481216430664060,55,99,100,78,83,15508,0,0,0,0,2147120521,2147768301,2147572882,2147567277,236,2,13,30858
1364447706,5811,938.0000000000000000,39.9005584716796900,569.5181274414062000,4.1905350685119630,55.6280097961425800,57,98,100,78,82,15503,0,0,0,0,2147123638,2147769398,2147576100,2147568640,3324,2,13,36930
1364451306,5810,946.5499877929688000,39.9916801452636700,570.2708740234375000,4.1671428680419920,55.6165199279785160,55,98,100,78,82,15502,0,0,0,0,2147124534,2147775241,2147572882,2147568292,3225,2,13,57075
1364454906,5811,976.7999877929688000,41.4436302185058600,572.3436279296875000,4.1027088165283200,55.4238700866699200,55,100,99,77,82,15483,0,0,0,0,2147122212,2147771968,2147574665,2147568768,2662,2,13,18090
1364458506,5808,988.1199951171875000,41.1150703430175800,572.3325805664062000,4.1030502319335940,55.4723091125488300,55,98,101,78,82,15503,0,0,0,0,2147120987,2147773769,2147573357,2147569792,2199,2,13,29745
1364462106,5808,985.1400146484375000,40.5117492675781250,573.0186767578125000,4.0817131996154785,55.5712089538574200,54,96,100,78,81,15500,0,0,0,0,2147125796,2147777325,2147574016,2147566564,178,2,13,36398
1364465706,5807,983.8099975585938000,41.0177688598632800,574.0427856445312000,4.0498600006103520,55.5111999511718750,54,98,99,77,81,15503,0,0,0,0,2147124873,2147775917,2147569444,2147566336,308,2,13,16511
1364469306,5809,986.9400024414062000,41.2339401245117200,574.3997192382812000,4.0387549400329590,55.4808502197265600,54,98,100,78,81,15495,0,0,0,0,2147127497,2147775094,2147576310,2147567844,17,2,13,15502
1364472906,5811,989.5599975585938000,41.2358818054199200,574.3662719726562000,4.0397949218750000,55.4820213317871100,55,97,100,78,83,15499,0,0,0,0,2147123830,2147771602,2147572352,2147567835,51,2,13,60024
1364476506,5810,986.8800048828125000,41.1687812805175800,574.9343872070312000,4.0221180915832520,55.4926795959472660,55,99,100,79,82,15494,0,0,0,0,2147122569,2147769600,2147576411,2147562057,3267,2,13,46077
1364480106,5813,986.9699707031250000,41.1881408691406250,574.7219848632812000,4.0287280082702640,55.4910011291503900,55,97,99,77,81,15498,0,0,0,0,2147124598,2147766299,2147571547,2147566006,3471,2,13,8467
1364483706,5811,986.8300170898438000,41.0721893310546900,574.6080932617188000,4.0322718620300290,55.5039100646972660,55,96,100,77,81,15497,0,0,0,0,2147123236,2147770761,2147576640,2147565504,3591,2,13,30013
1364487306,5810,987.2700195312500000,41.2588806152343750,574.8184814453125000,4.0257239341735840,55.4774208068847660,55,97,100,76,82,15499,0,0,0,0,2147124196,2147775643,2147571337,2147566793,128,2,13,33452
1364490906,5810,993.4899902343750000,40.6438217163085940,574.5794067382812000,4.0331630706787110,55.5687294006347660,55,97,100,78,83,15499,0,0,0,0,2147121993,2147770377,2147572818,2147567478,230,2,13,10210
1364494506,5811,994.8900146484375000,41.3865394592285160,574.4525146484375000,4.0371131896972660,55.4588012695312500,55,126,99,78,82,15498,0,0,0,0,2147126070,2147767030,2147573741,2147565805,58,2,13,47258
1364498106,5809,989.6699829101562000,40.8278388977050800,574.6135864257812000,4.0320987701416020,55.5390281677246100,54,99,99,78,83,15495,0,0,0,0,2147126052,2147773933,2147572196,2147565385,247,2,13,29392
1364501706,5810,991.7700195312500000,41.6301002502441400,574.9807739257812000,4.0206742286682130,55.4312400817871100,56,98,100,78,81,15493,0,0,0,0,2147121801,2147769353,2147571675,2147566546,173,2,13,42129
1364505306,5810,990.0399780273438000,41.5949707031250000,575.1187133789062000,4.0163841247558590,55.4369010925293000,53,97,100,78,82,15495,0,0,0,0,2147122788,2147772946,2147574473,2147565229,3081,2,13,9356
1364508906,5808,986.5200195312500000,41.9882392883300800,575.1547241210938000,4.0152630805969240,55.3760108947753900,55,97,100,77,82,15497,0,0,0,0,2147122953,2147771026,2147574710,2147566116,5,2,13,9396
1364512506,5809,990.1900024414062000,41.9796714782714840,575.3140258789062000,4.0103030204772950,55.3773994445800800,55,98,100,78,82,15495,0,0,0,0,2147123538,2147774729,2147570614,2147566966,903,3,13,15822
1364516106,5808,992.3699951171875000,41.0838890075683600,574.2026977539062000,4.0448861122131350,55.4975318908691400,55,97,99,78,81,15494,0,0,0,0,2147122166,2147767085,2147576201,2147568384,549,2,13,2524
1364519706,5808,991.9299926757812000,41.3827018737793000,574.4420776367188000,4.0374369621276855,55.4609489440918000,55,99,101,79,82,15495,0,0,0,0,2147123428,2147767460,2147575899,2147566436,521,3,13,30251
1364523306,5810,993.2100219726562000,40.7159309387207000,574.5040283203125000,4.0355110168457030,55.5532798767089840,55,97,99,77,83,15494,0,0,0,0,2147124973,2147769051,2147569005,2147567661,3449,2,13,45889
1364526906,5811,998.1199951171875000,39.9837493896484400,574.2587280273438000,4.0431442260742190,55.6619911193847660,55,100,100,78,82,15493,0,0,0,0,2147122221,2147768704,2147573613,2147568128,52,2,13,15672
1364530506,5811,994.8099975585938000,39.6363601684570300,574.3704223632812000,4.0396671295166020,55.7135581970214840,54,99,101,77,82,15494,0,0,0,0,2147122249,2147774290,2147571611,2147568804,3355,2,13,30556
1364534106,5809,1002.1300048828125000,40.3171806335449200,573.9962768554688000,4.0513057708740230,55.6100082397460940,55,99,101,78,82,15493,0,0,0,0,2147123346,2147768100,2147570212,2147569408,6,2,13,21139
1364537706,5810,1005.8699951171875000,39.6322593688964840,573.6940917968750000,4.0607070922851560,55.7089614868164060,55,97,99,77,82,15492,0,0,0,0,2147122157,2147771282,2147572772,2147564726,3470,2,13,48054
1364541306,5809,1000.2500000000000000,39.3592910766601560,573.7526245117188000,4.0588889122009280,55.7495002746582000,55,99,99,78,82,15493,0,0,0,0,2147121124,2147772434,2147571757,2147568960,3345,3,13,1543
1364544906,5808,999.3599853515625000,40.0356292724609400,574.0338745117188000,4.0501370429992680,55.6505813598632800,55,98,100,78,81,15492,0,0,0,0,2147122258,2147773778,2147569243,2147567341,3221,2,13,6576
1364548506,5810,1000.7199707031250000,40.2959709167480500,573.8873901367188000,4.0546932220458980,55.6110305786132800,55,99,98,77,81,15463,0,0,0,0,2147125193,2147774125,2147567817,2147569206,521,2,13,12425
1364552106,5812,990.7999877929688000,40.6371917724609400,574.6079711914062000,4.0322737693786620,55.5665893554687500,55,100,99,78,82,15485,0,0,0,0,2147121974,2147771364,2147575524,2147567323,1966,2,13,41536
1364555706,5810,993.0300292968750000,41.4197998046875000,575.0098876953125000,4.0197701454162600,55.4568481445312500,54,98,99,78,82,15487,0,0,0,0,2147124845,2147771053,2147572178,2147568896,393,2,13,57294
1364559306,5807,999.7500000000000000,40.8737602233886700,574.2971191406250000,4.0419478416442870,55.5353317260742200,55,97,98,78,82,15488,0,0,0,0,2147125723,2147769636,2147570477,2147570962,3561,2,13,2411
1364562906,5807,998.0900268554688000,40.8025207519531250,574.2532958984375000,4.0433101654052730,55.5396003723144500,54,100,101,78,82,15485,0,0,0,0,2147123693,2147772242,2147572443,2147569188,131,2,13,10168
1364566506,5809,1003.5100097656250000,39.8858489990234400,573.7645263671875000,4.0585169792175290,55.6745796203613300,54,98,100,78,81,15485,0,0,0,0,2147123465,2147773312,2147577014,2147561664,256,3,13,57992
1364570106,5808,995.6199951171875000,41.2846298217773440,574.4968872070312000,4.0357317924499510,55.4730796813964840,54,98,99,78,81,15486,0,0,0,0,2147124214,2147771510,2147571858,2147569691,380,2,13,61987
1364573706,5810,1006.3900146484375000,41.5455703735351560,574.4990844726562000,4.0356621742248535,55.4335289001464840,56,97,100,78,83,15483,0,0,0,0,2147125010,2147771410,2147570432,2147568265,2808,2,13,8563
1364577306,5809,992.7000122070312000,41.2956390380859400,574.4968872070312000,4.0357298851013180,55.4708595275878900,55,98,100,78,81,15484,0,0,0,0,2147125238,2147774573,2147576868,2147567680,3562,2,13,26507
1364580906,5811,992.3300170898438000,41.3783416748046900,574.5098266601562000,4.0353322029113770,55.4576301574707000,55,99,101,77,81,15483,0,0,0,0,2147123328,2147770038,2147573915,2147566180,3254,2,13,15381
1364584506,5813,997.1500244140625000,41.4318695068359400,574.5120849609375000,4.0352568626403810,55.4540901184082000,56,100,99,78,82,15484,0,0,0,0,2147125312,2147769865,2147572864,2147567625,3449,2,13,35022
1364588106,5808,992.4199829101562000,41.8064193725585940,574.8350219726562000,4.0252089500427250,55.4036102294921900,54,104,100,77,83,15484,0,0,0,0,2147125906,2147773915,2147569563,2147571072,128,2,13,63192
1364588756,5812,989.9099731445312000,42.0663490295410160,574.9290161132812000,4.0222849845886230,55.3625297546386700,54,97,100,77,82,15484,0,0,0,0,2147126409,2147779227,2147573696,2147567597,1590,2,13,57298
